Home > Weather > Simi Valley > Past weeks

Flag for USA Past Weather in Simi Valley, California, USA — Yesterday and Last 2 Weeks

Now
58 °F

Clear.


Feels Like: 58 °F
Forecast: 55 / 76 °F
Wind: 3 mph from East

Location: Van Nuys Airport

Current Time: May 28, 2016 at 1:15:05 AM

Latest Report: May 28, 2016 at 12:51 AM


Visibility: 10 mi

Pressure: 29.85 "Hg

Humidity: 84%

Dew Point: 53 °F

Location of Simi ValleyLocation

Past Weather in Simi Valley — Graph

°F

Simi Valley Temperature Yesterday

Maximum temperature yesterday: 80 °F (at 2:51 PM)
Minimum temperature yesterday: 55 °F (at 5:51 AM)
Average temperature yesterday: 65 °F

High & Low Weather Summary for the Past Weeks

 TemperatureHumidityPressure
High86 °F (May 13, 3:51 PM)93% (May 13, 5:00 AM)30.07 "Hg (May 13, 5:00 AM)
Low51 °F (May 22, 5:51 AM)20% (May 13, 2:51 PM)29.77 "Hg (May 19, 5:51 PM)
Average64 °F64%29.92 "Hg
* Reported May 12 11:51 PM — May 27 11:51 PM, Simi Valley, Weather by CustomWeather, © 2016

Note: Actual official high and low records may vary slightly from our data, if they occured in-between our weather recording intervals... More about our weather records

Advertising

Simi Valley Weather History for the Previous 24 Hours

Scroll right to see more
 ConditionsComfort  
Time TempWeatherWind HumidityBarometerVisibility
11:51 PM
Fri, May 27
58 °FClear.3 mph84%29.85 "Hg10 mi
10:51 PM58 °FClear.5 mph84%29.86 "Hg10 mi
9:51 PM60 °FClear.7 mph78%29.86 "Hg10 mi
8:51 PM61 °FSunny.5 mph78%29.85 "Hg10 mi
7:51 PM65 °FSunny.7 mph68%29.83 "Hg10 mi
6:51 PM72 °FSunny.10 mph53%29.80 "Hg10 mi
5:51 PM76 °FSunny.8 mph48%29.79 "Hg10 mi
4:51 PM76 °FSunny.9 mph47%29.79 "Hg10 mi
3:51 PM79 °FSunny.13 mph42%29.80 "Hg10 mi
2:51 PM80 °FSunny.8 mph41%29.81 "Hg10 mi
1:51 PM79 °FSunny.9 mph42%29.83 "Hg10 mi
12:51 PM77 °FSunny.8 mph42%29.86 "Hg10 mi
11:51 AM73 °FSunny.No wind50%29.88 "Hg10 mi
10:51 AM69 °FSunny.6 mph57%29.90 "Hg10 mi
8:51 AM61 °FScattered clouds.No wind75%29.94 "Hg10 mi
7:51 AM60 °FPartly sunny.No wind75%29.93 "Hg9 mi
6:59 AM57 °FScattered clouds.5 mph83%29.95 "Hg10 mi
5:51 AM55 °FClear.No wind83%29.93 "Hg10 mi
4:51 AM56 °FClear.No wind77%29.92 "Hg10 mi
3:51 AM57 °FClear.No wind78%29.93 "Hg10 mi
2:51 AM57 °FClear.No wind78%29.94 "Hg10 mi
1:51 AM58 °FClear.No wind75%29.95 "Hg10 mi
Weather by CustomWeather, © 2016

See weather overviewHow to use our weather pages